Weather History for Springfield, CO

Change the Weather History Date:

Tuesday, October 11, 2011

  Actual Average Record
Temperature  
Mean Temperature 58 °F -  
Max Temperature 76 °F 71 °F 87 °F (2012)
Min Temperature 40 °F 41 °F 32 °F (2001)
Degree Days  
Heating Degree Days 7 10  
Month to date heating degree days 48 88  
Since 1 July heating degree days 98 178  
Cooling Degree Days 0 0  
Month to date cooling degree days 16 9  
Year to date cooling degree days 1530 1026  
Growing Degree Days 8 (Base 50)    
Moisture  
Dew Point 32 °F    
Average Humidity 50    
Maximum Humidity 83    
Minimum Humidity 16    
Precipitation  
Precipitation 0.00 in 0.04 in 0.17 in (2004)
Month to date precipitation 0.32 0.55  
Year to date precipitation 4.73 15.62  
Sea Level Pressure  
Sea Level Pressure 29.72 in    
Wind  
Wind Speed 8 mph (NNW)    
Max Wind Speed 20 mph    
Max Gust Speed 26 mph    
T = Trace of Precipitation, MM = Missing Value Source: NWS Daily Summary

Daily Weather History Graph

Daily Weather History Graph

Search for Another Location

Airport:

Trip Planner

Search our weather history database for the weather conditions in past years. The results will help you decide how hot, cold, wet, or windy it might be!

Date:

Astronomy

Oct. 11, 2011 Rise Set
Actual Time 6:54 AM MDT 6:19 PM MDT
Civil Twilight 6:28 AM MDT 6:45 PM MDT
Nautical Twilight 5:58 AM MDT 7:15 PM MDT
Astronomical Twilight 5:27 AM MDT 7:45 PM MDT
Moon 5:53 PM MDT (10/11) 6:33 AM MDT (10/11)
Length of Visible Light 12h 17m
Length of Day
11h 24m
Full, 100% of the Moon is Illuminated
Oct 11
Full
Oct 11
Full
Oct 19
Last Quarter
Oct 26
New
Nov 2
First Quarter

Hourly Weather History & Observations

Time (MDT) Temp. Windchill Dew Point Humidity Pressure Visibility Wind Dir Wind Speed Gust Speed Precip Events Conditions
12:56 AM 44.1 °F 40.1 °F 34.0 °F 68% 29.75 in - NW 6.9 mph - N/A   Unknown
1:56 AM 44.1 °F 40.8 °F 34.0 °F 68% 29.75 in - WSW 5.8 mph - N/A   Unknown
2:56 AM 42.1 °F 38.4 °F 30.9 °F 65% 29.74 in - WSW 5.8 mph - N/A   Unknown
3:56 AM 44.1 °F 42.5 °F 30.0 °F 58% 29.73 in - WNW 3.5 mph - N/A   Unknown
4:56 AM 44.1 °F 41.5 °F 30.0 °F 58% 29.73 in - WNW 4.6 mph - N/A   Unknown
5:56 AM 46.9 °F - 30.0 °F 52% 29.74 in - WSW 5.8 mph - N/A   Unknown
6:56 AM 46.9 °F - 30.0 °F 52% 29.74 in - WNW 8.1 mph - N/A   Unknown
7:56 AM 53.1 °F - 30.0 °F 41% 29.74 in - WNW 12.7 mph - N/A   Unknown
8:56 AM 61.0 °F - 30.0 °F 31% 29.73 in - NW 13.8 mph - N/A   Unknown
9:56 AM 66.9 °F - 30.0 °F 25% 29.72 in - NW 18.4 mph 23.0 mph N/A   Unknown
10:56 AM 71.1 °F - 27.0 °F 19% 29.70 in - NNW 19.6 mph 25.3 mph N/A   Unknown
11:56 AM 73.0 °F - 26.1 °F 17% 29.68 in - North 13.8 mph 19.6 mph N/A   Unknown
12:56 PM 72.0 °F - 25.0 °F 17% 29.69 in - Calm Calm - N/A   Unknown
1:56 PM 72.0 °F - 26.1 °F 18% 29.68 in - NNW 8.1 mph - N/A   Unknown
2:56 PM 75.0 °F - 26.1 °F 16% 29.66 in - NNE 5.8 mph - N/A   Unknown
3:56 PM 73.0 °F - 26.1 °F 17% 29.66 in - Calm Calm - N/A   Unknown
4:56 PM 73.9 °F - 27.0 °F 18% 29.66 in - ENE 6.9 mph - N/A   Unknown
5:56 PM 70.0 °F - 30.0 °F 23% 29.67 in - ENE 12.7 mph - N/A   Unknown
6:56 PM 64.0 °F - 36.0 °F 35% 29.71 in - East 6.9 mph - N/A   Unknown
7:56 PM 57.0 °F - 41.0 °F 55% 29.75 in - East 6.9 mph - N/A   Unknown
8:56 PM 53.1 °F - 44.1 °F 71% 29.77 in - East 4.6 mph - N/A   Unknown
9:56 PM 48.9 °F - 42.1 °F 77% 29.78 in - NNW 5.8 mph - N/A   Unknown
10:56 PM 48.9 °F - 43.0 °F 80% 29.76 in - NNW 4.6 mph - N/A   Unknown
11:56 PM 45.0 °F - 39.9 °F 82% 29.77 in - Calm Calm - N/A   Unknown